SCP
0 -0 -0 -0 -0 0 0 0 0 0 0 0 0 0 0 0 0 0 0 0 0 0 0 0 0 0 0 0 0 0 0 0 0 0 0 0 0 0
0 0 0 -0 -0 -0 0 0 0 0 0 0 0 0 0 0 0 0 0 0 0 0 0 0 0 0 0 0 0 0 0 0 0 0 0 0 0 0
0 0 0 0 0 0 0 0 0 0 0 0 0 0 0 0 0 0 0 0 0 0 0 0 0 0 0 0 0 0 0 0 0 0 0 0 0 0
0 0 0 0 0 0 0 0 0 0 0 0 0 0 0 0 0 0 0 0 0 0 0 0 0 0 0 0 0 0 0 0 0 0 0 0 0 0
0 0 0 0 0 0 0 0 0 0 0 0 0 0 0 0 0 0 0 0 0 0 0 0 0 0 0 0 0 0 0 0 0 0 0 0 0 0
0 0 0 0 0 0 0 0 0 0 0 0 0 0 1 1 0 0 0 0 0 0 0 0 0 0 0 0 0 0 0 0 0 0 0 0 0 0
-0 -0 0 0 0 0 0 0 0 0 0 0 1 0 0 1 1 0 0 0 0 0 0 0 0 0 0 0 0 0 0 0 0 0 0 0 0 0
-1 -0 -0 -0 0 0 0 0 0 0 0 1 0 1 0 0 1 1 1 1 1 0 0 0 0 0 0 0 0 0 0 0 0 0 0 0 0 0
-2 -1 -0 0 -0 0 0 0 0 0 0 0 1 0 0 0 1 0 0 0 0 0 0 0 0 0 0 0 0 0 0 0 0 0 0 0 0 0
-1 -1 -0 0 1 1 1 1 1 1 0 0 0 0 0 0 1 1 0 0 0 0 0 0 0 0 0 0 0 0 0 0 0 0 0 0 0 0
0 0 1 0 1 2 2 2 1 1 1 0 0 0 0 2 2 2 1 0 0 0 0 0 0 0 0 0 0 0 0 0 0 0 0 0 0 0
2 1 1 2 4 2 3 5 3 3 2 1 0 0 0 0 1 1 0 0 0 0 0 0 0 0 0 0 0 0 0 0 0 0 0 0 0 0
3 3 4 3 2 2 1 6 3 5 3 2 1 1 0 0 1 1 1 1 0 0 0 0 0 0 0 0 0 0 0 0 0 0 0 0 0 0
4 4 3 3 2 0 0 2 3 5 7 4 3 2 1 0 0 1 1 0 0 0 0 0 0 0 0 0 0 0 0 0 0 0 0 0 0 0
4 4 4 4 2 0 0 0 0 3 8 8 5 4 2 1 0 0 0 0 0 0 0 0 0 0 0 0 0 0 0 0 0 0 0 0 0 0
2 2 4 4 4 3 0 0 0 4 8 10 9 7 4 1 1 0 0 0 0 0 0 0 0 0 0 0 0 0 0 0 0 0 0 0 0 0
2 2 3 5 4 6 1 1 0 0 4 7 8 9 6 1 0 0 1 0 0 0 0 0 0 0 0 0 0 0 0 0 0 0 0 0 0 0
0 3 4 6 8 9 9 9 1 1 2 4 6 8 6 2 1 0 1 0 0 0 0 0 0 0 0 0 0 0 0 0 0 0 0 0 0 0
2 3 4 6 9 10 8 6 4 3 2 2 3 4 5 3 0 1 0 0 0 0 0 0 0 0 0 0 0 0 0 0 0 0 0 0 0 0
0 0 0 1 3 3 2 2 1 1 1 1 0 0 0 0 0 0 0 0 0 0 0 0 0 0 0 0 0 0 0 0 0 0 0 0 0 0
0 0 0 0 0 0 0 0 0 0 0 0 0 0 0 0 0 0 0 0 0 0 0 0 0 0 0 0 0 0 0 0 0 0 0 0 0 0
0 0 0 0 0 0 0 0 0 0 0 0 0 0 0 0 0 0 0 0 0 0 0 0 0 0 0 0 0 0 0 0 -0 0 0 0 0 0
0 0 0 0 0 0 0 0 0 0 0 0 0 0 0 0 0 0 0 0 0 0 0 0 0 0 0 0 0 0 0 0 0 0 0 0 0 0
Wind_Speed_500mb
33 37 37 36 34 30 26 28 19 10 23 36 29 26 28 25 22 19 23 21 19 17 18 19 20 22 24 25 24 26 29 31 32 30 32 31 29 27
36 35 40 37 34 29 24 28 32 29 23 15 27 32 33 33 27 23 25 24 20 18 16 13 15 17 21 25 27 31 33 34 33 33 33 30 29 31
45 42 39 42 44 40 36 34 33 32 34 26 20 32 36 37 29 26 29 29 30 17 14 20 21 19 24 26 28 33 32 28 30 28 30 31 30 34
55 52 49 42 50 52 48 45 41 39 36 32 36 31 43 36 30 28 26 29 34 30 20 21 21 19 22 20 18 19 16 16 21 21 23 29 34 40
61 60 57 54 54 55 61 56 53 47 46 45 42 40 37 38 41 40 32 22 22 23 30 28 24 19 15 13 13 14 15 18 22 25 28 32 37 40
63 67 66 67 64 61 59 66 64 60 57 57 55 54 54 46 44 46 44 33 24 29 27 29 24 24 18 14 13 18 22 27 30 29 29 35 42 42
65 70 74 74 73 69 65 65 68 76 73 69 68 63 58 59 65 55 53 42 32 29 29 31 35 32 30 23 18 24 29 33 26 30 35 40 48 43
77 75 77 79 80 78 76 73 70 75 84 86 80 76 70 63 58 57 55 52 52 45 40 39 39 37 36 33 26 23 24 20 27 30 26 33 35 27
83 81 79 82 82 84 85 84 83 80 82 81 89 88 79 70 59 64 63 61 60 51 44 45 42 41 33 32 27 26 28 28 24 22 24 31 29 26
92 91 89 84 83 83 83 88 92 90 91 86 87 88 84 75 65 61 61 59 55 52 50 43 45 46 36 35 33 30 28 22 21 23 20 29 29 25
105 102 101 100 97 91 89 90 86 92 91 94 90 88 85 80 80 69 75 68 68 71 60 47 33 47 37 40 41 35 24 20 19 19 21 33 35 26
110 113 113 112 108 105 101 99 104 107 92 94 88 96 93 90 90 93 83 75 73 68 62 53 37 43 49 46 44 31 24 19 16 18 19 28 28 24
108 114 115 110 108 109 107 108 120 109 106 104 100 93 100 105 105 102 95 93 83 77 64 50 37 41 53 35 43 33 29 25 20 20 23 28 22 27
102 105 104 99 92 90 97 110 112 108 107 115 111 110 107 106 114 114 109 104 88 69 59 50 45 48 56 58 46 40 35 35 34 26 26 23 27 34
85 91 91 94 96 89 88 90 91 99 116 109 120 125 128 119 103 108 114 104 87 78 61 55 52 49 61 63 56 42 37 37 36 32 27 26 33 36
64 63 63 67 75 91 100 94 84 99 114 126 128 129 122 113 115 107 111 120 98 85 63 58 59 59 60 53 45 36 34 30 27 22 18 28 32 41
62 63 71 78 82 91 96 98 99 103 107 98 109 119 116 115 120 115 112 108 109 86 62 73 61 64 58 48 41 33 27 25 23 20 23 31 39 29
53 56 58 60 73 80 83 83 85 88 88 95 107 107 116 116 130 125 116 122 98 67 63 81 74 61 53 47 40 27 25 21 24 22 29 38 28 29
64 70 78 74 64 58 61 67 68 74 77 86 80 95 99 117 132 140 122 92 42 59 76 77 71 69 65 56 41 29 22 33 31 32 33 22 23 20
72 72 68 66 64 66 61 62 66 65 71 70 66 54 57 63 49 52 83 35 72 70 75 70 64 65 59 48 44 33 30 34 39 32 22 15 21 16
38 36 39 44 51 56 57 52 47 47 54 62 35 16 13 24 22 12 16 54 70 69 71 63 60 45 35 40 42 34 29 23 29 26 16 17 22 17
15 17 17 22 26 33 38 39 34 25 26 21 25 33 13 14 18 17 45 54 64 61 56 53 48 46 52 50 39 30 31 23 27 19 18 21 21 22
18 19 20 21 25 31 31 28 28 30 26 30 22 10 9 14 18 23 40 49 53 48 52 52 50 49 47 41 32 28 31 35 33 22 25 20 24 27
Wind_Direction_500mb
219 213 206 204 210 219 231 224 219 218 226 234 229 234 236 244 255 274 271 280 286 288 285 288 297 306 309 308 306 303 306 308 309 313 314 313 313 314
228 220 217 208 206 205 219 208 222 231 240 241 235 244 234 238 247 255 262 271 281 276 271 261 273 299 306 302 296 297 300 302 306 309 311 314 320 318
242 241 233 221 214 216 218 230 224 226 235 230 239 232 235 238 247 251 267 267 270 234 249 260 274 297 313 313 297 291 295 303 303 312 316 317 320 326
241 246 246 237 224 222 227 230 237 235 235 235 235 234 230 244 253 261 274 282 263 249 255 244 268 293 311 308 318 306 300 299 305 318 321 318 322 321
240 243 247 247 243 232 229 235 237 238 235 237 238 239 241 245 252 254 263 269 253 252 257 253 250 262 298 290 300 310 290 310 311 304 305 307 310 316
247 248 246 247 250 248 239 237 238 239 240 242 240 239 244 246 249 256 253 261 250 236 244 247 255 262 271 271 284 281 285 303 302 300 308 314 316 313
247 248 251 251 252 253 251 246 241 237 241 242 246 245 239 242 242 247 248 260 256 245 249 254 251 268 267 273 255 271 274 281 294 307 317 319 316 310
253 252 253 256 257 256 253 250 246 244 243 243 246 244 245 240 240 242 245 244 242 240 245 247 249 260 269 257 255 250 256 279 300 308 313 324 328 334
256 257 256 255 257 260 262 260 256 251 249 249 248 250 251 249 240 238 239 243 243 236 240 235 241 260 254 252 251 255 271 288 301 300 319 333 338 351
258 258 260 261 261 260 262 262 262 259 254 251 250 251 254 257 248 243 243 243 235 232 232 244 263 267 257 251 254 264 289 287 289 307 316 330 331 338
258 260 261 262 262 262 261 262 263 264 265 260 258 258 252 245 244 235 229 224 221 223 230 242 255 270 241 244 250 263 270 270 283 297 308 315 314 314
255 259 260 262 264 264 261 261 263 265 263 262 259 255 252 247 237 237 238 234 234 233 235 232 226 229 245 242 238 248 244 259 277 278 288 304 301 295
257 259 260 260 258 259 261 262 266 270 270 267 265 259 252 248 245 240 238 238 237 241 239 225 225 220 230 225 226 234 253 259 265 266 278 297 277 286
259 261 261 263 262 261 260 262 264 264 260 261 258 258 251 248 244 243 242 241 241 239 234 236 226 237 227 225 224 234 247 256 261 263 274 274 275 295
260 262 265 267 264 261 262 266 264 258 256 249 253 257 259 262 250 243 240 236 242 236 230 240 237 228 221 227 238 244 256 255 254 255 263 272 281 288
265 264 265 265 264 267 262 258 260 257 254 252 251 257 256 253 243 241 234 233 226 227 227 234 234 218 220 226 239 249 253 245 237 244 241 265 273 294
266 263 261 260 261 264 266 266 266 265 263 263 257 254 250 247 246 244 236 226 220 209 228 221 220 218 228 232 232 241 239 227 211 217 244 259 286 291
258 262 266 264 261 266 271 273 276 273 275 274 271 261 256 245 244 231 229 213 203 221 221 214 205 205 210 214 223 227 204 204 210 229 248 275 284 297
266 271 276 283 282 277 276 278 281 286 288 287 290 275 271 260 250 226 197 180 220 230 215 214 206 209 207 211 215 215 214 217 218 231 260 275 290 309
269 269 270 272 275 278 275 282 285 283 281 279 268 267 264 270 284 186 179 186 213 203 207 206 206 203 208 214 212 222 222 218 221 238 260 279 302 312
277 274 270 273 275 280 284 285 283 280 273 267 271 348 356 152 135 124 214 212 206 202 200 199 202 201 215 205 206 217 226 218 227 239 258 266 292 292
318 316 305 297 287 282 284 286 289 285 294 265 259 272 245 229 208 195 204 199 195 195 191 195 199 201 199 206 219 241 211 227 219 233 245 256 279 297
307 301 302 310 303 298 292 293 293 289 284 253 285 277 218 224 207 201 196 196 196 190 183 193 188 197 209 225 242 234 235 224 216 227 229 244 281 303
Wind_Speed_850mb
33 37 37 36 34 30 26 28 19 10 23 36 29 26 28 25 22 19 23 21 19 17 18 19 20 22 24 25 24 26 29 31 32 30 32 31 29 27
36 35 40 37 34 29 24 28 32 29 23 15 27 32 33 33 27 23 25 24 20 18 16 13 15 17 21 25 27 31 33 34 33 33 33 30 29 31
45 42 39 42 44 40 36 34 33 32 34 26 20 32 36 37 29 26 29 29 30 17 14 20 21 19 24 26 28 33 32 28 30 28 30 31 30 34
55 52 49 42 50 52 48 45 41 39 36 32 36 31 43 36 30 28 26 29 34 30 20 21 21 19 22 20 18 19 16 16 21 21 23 29 34 40
61 60 57 54 54 55 61 56 53 47 46 45 42 40 37 38 41 40 32 22 22 23 30 28 24 19 15 13 13 14 15 18 22 25 28 32 37 40
63 67 66 67 64 61 59 66 64 60 57 57 55 54 54 46 44 46 44 33 24 29 27 29 24 24 18 14 13 18 22 27 30 29 29 35 42 42
65 70 74 74 73 69 65 65 68 76 73 69 68 63 58 59 65 55 53 42 32 29 29 31 35 32 30 23 18 24 29 33 26 30 35 40 48 43
77 75 77 79 80 78 76 73 70 75 84 86 80 76 70 63 58 57 55 52 52 45 40 39 39 37 36 33 26 23 24 20 27 30 26 33 35 27
83 81 79 82 82 84 85 84 83 80 82 81 89 88 79 70 59 64 63 61 60 51 44 45 42 41 33 32 27 26 28 28 24 22 24 31 29 26
92 91 89 84 83 83 83 88 92 90 91 86 87 88 84 75 65 61 61 59 55 52 50 43 45 46 36 35 33 30 28 22 21 23 20 29 29 25
105 102 101 100 97 91 89 90 86 92 91 94 90 88 85 80 80 69 75 68 68 71 60 47 33 47 37 40 41 35 24 20 19 19 21 33 35 26
110 113 113 112 108 105 101 99 104 107 92 94 88 96 93 90 90 93 83 75 73 68 62 53 37 43 49 46 44 31 24 19 16 18 19 28 28 24
108 114 115 110 108 109 107 108 120 109 106 104 100 93 100 105 105 102 95 93 83 77 64 50 37 41 53 35 43 33 29 25 20 20 23 28 22 27
102 105 104 99 92 90 97 110 112 108 107 115 111 110 107 106 114 114 109 104 88 69 59 50 45 48 56 58 46 40 35 35 34 26 26 23 27 34
85 91 91 94 96 89 88 90 91 99 116 109 120 125 128 119 103 108 114 104 87 78 61 55 52 49 61 63 56 42 37 37 36 32 27 26 33 36
64 63 63 67 75 91 100 94 84 99 114 126 128 129 122 113 115 107 111 120 98 85 63 58 59 59 60 53 45 36 34 30 27 22 18 28 32 41
62 63 71 78 82 91 96 98 99 103 107 98 109 119 116 115 120 115 112 108 109 86 62 73 61 64 58 48 41 33 27 25 23 20 23 31 39 29
53 56 58 60 73 80 83 83 85 88 88 95 107 107 116 116 130 125 116 122 98 67 63 81 74 61 53 47 40 27 25 21 24 22 29 38 28 29
64 70 78 74 64 58 61 67 68 74 77 86 80 95 99 117 132 140 122 92 42 59 76 77 71 69 65 56 41 29 22 33 31 32 33 22 23 20
72 72 68 66 64 66 61 62 66 65 71 70 66 54 57 63 49 52 83 35 72 70 75 70 64 65 59 48 44 33 30 34 39 32 22 15 21 16
38 36 39 44 51 56 57 52 47 47 54 62 35 16 13 24 22 12 16 54 70 69 71 63 60 45 35 40 42 34 29 23 29 26 16 17 22 17
15 17 17 22 26 33 38 39 34 25 26 21 25 33 13 14 18 17 45 54 64 61 56 53 48 46 52 50 39 30 31 23 27 19 18 21 21 22
18 19 20 21 25 31 31 28 28 30 26 30 22 10 9 14 18 23 40 49 53 48 52 52 50 49 47 41 32 28 31 35 33 22 25 20 24 27
Wind_Direction_850mb
219 213 206 204 210 219 231 224 219 218 226 234 229 234 236 244 255 274 271 280 286 288 285 288 297 306 309 308 306 303 306 308 309 313 314 313 313 314
228 220 217 208 206 205 219 208 222 231 240 241 235 244 234 238 247 255 262 271 281 276 271 261 273 299 306 302 296 297 300 302 306 309 311 314 320 318
242 241 233 221 214 216 218 230 224 226 235 230 239 232 235 238 247 251 267 267 270 234 249 260 274 297 313 313 297 291 295 303 303 312 316 317 320 326
241 246 246 237 224 222 227 230 237 235 235 235 235 234 230 244 253 261 274 282 263 249 255 244 268 293 311 308 318 306 300 299 305 318 321 318 322 321
240 243 247 247 243 232 229 235 237 238 235 237 238 239 241 245 252 254 263 269 253 252 257 253 250 262 298 290 300 310 290 310 311 304 305 307 310 316
247 248 246 247 250 248 239 237 238 239 240 242 240 239 244 246 249 256 253 261 250 236 244 247 255 262 271 271 284 281 285 303 302 300 308 314 316 313
247 248 251 251 252 253 251 246 241 237 241 242 246 245 239 242 242 247 248 260 256 245 249 254 251 268 267 273 255 271 274 281 294 307 317 319 316 310
253 252 253 256 257 256 253 250 246 244 243 243 246 244 245 240 240 242 245 244 242 240 245 247 249 260 269 257 255 250 256 279 300 308 313 324 328 334
256 257 256 255 257 260 262 260 256 251 249 249 248 250 251 249 240 238 239 243 243 236 240 235 241 260 254 252 251 255 271 288 301 300 319 333 338 351
258 258 260 261 261 260 262 262 262 259 254 251 250 251 254 257 248 243 243 243 235 232 232 244 263 267 257 251 254 264 289 287 289 307 316 330 331 338
258 260 261 262 262 262 261 262 263 264 265 260 258 258 252 245 244 235 229 224 221 223 230 242 255 270 241 244 250 263 270 270 283 297 308 315 314 314
255 259 260 262 264 264 261 261 263 265 263 262 259 255 252 247 237 237 238 234 234 233 235 232 226 229 245 242 238 248 244 259 277 278 288 304 301 295
257 259 260 260 258 259 261 262 266 270 270 267 265 259 252 248 245 240 238 238 237 241 239 225 225 220 230 225 226 234 253 259 265 266 278 297 277 286
259 261 261 263 262 261 260 262 264 264 260 261 258 258 251 248 244 243 242 241 241 239 234 236 226 237 227 225 224 234 247 256 261 263 274 274 275 295
260 262 265 267 264 261 262 266 264 258 256 249 253 257 259 262 250 243 240 236 242 236 230 240 237 228 221 227 238 244 256 255 254 255 263 272 281 288
265 264 265 265 264 267 262 258 260 257 254 252 251 257 256 253 243 241 234 233 226 227 227 234 234 218 220 226 239 249 253 245 237 244 241 265 273 294
266 263 261 260 261 264 266 266 266 265 263 263 257 254 250 247 246 244 236 226 220 209 228 221 220 218 228 232 232 241 239 227 211 217 244 259 286 291
258 262 266 264 261 266 271 273 276 273 275 274 271 261 256 245 244 231 229 213 203 221 221 214 205 205 210 214 223 227 204 204 210 229 248 275 284 297
266 271 276 283 282 277 276 278 281 286 288 287 290 275 271 260 250 226 197 180 220 230 215 214 206 209 207 211 215 215 214 217 218 231 260 275 290 309
269 269 270 272 275 278 275 282 285 283 281 279 268 267 264 270 284 186 179 186 213 203 207 206 206 203 208 214 212 222 222 218 221 238 260 279 302 312
277 274 270 273 275 280 284 285 283 280 273 267 271 348 356 152 135 124 214 212 206 202 200 199 202 201 215 205 206 217 226 218 227 239 258 266 292 292
318 316 305 297 287 282 284 286 289 285 294 265 259 272 245 229 208 195 204 199 195 195 191 195 199 201 199 206 219 241 211 227 219 233 245 256 279 297
307 301 302 310 303 298 292 293 293 289 284 253 285 277 218 224 207 201 196 196 196 190 183 193 188 197 209 225 242 234 235 224 216 227 229 244 281 303